LUCAS (JDRS-1) (47202 NORAD) Tracking and Keplerian Element Data

This shows tracking and keplerian element data for the satellite.

Feedback or suggestion? Click here.




ElementValue
Catalog47202
NameLUCAS (JDRS-1)
Epoch Orbit141
Epoch Day99.94657984
Epoch Year2021
RAAN103.7272
Inclination0.0455
Eccentricity0.0002874
Argument of Perigee266.6312
Mean Anonmoly259.5492
Mean Motion1.00273532
Decay Rate-2.51E-06
L11 47202U 20089A 21099.94657984 -.00000251 00000-0 00000-0 0 9996
L22 47202 0.0455 103.7272 0002874 266.6312 259.5492 1.00273532 1415

Live tracking and technical data element details for LUCAS (JDRS-1) (NORAD 47202). LUCAS (JDRS-1) can be tracked NOW for your location showing map with azimuth and elevation plus other details from your city location.

Track the satellite on the map from your city or location and see movement details for azimuth, elevation, latitude, longitude, range, height, and movement on the map or in text.







IsCatalogInMostPopularTable: catalog: 47202, numindb: 45
Update: records affected: 1



GetName: 47202 LUCAS (JDRS-1)

Hit Count: updated at: Sat, 10 Apr 2021 19:44:20 GMT